Location: Fort Frances
(48.6170°N, 93.4170°W)
Time: 14:10:20
(UTC-05:00)

ISS - All Passes

Search period start: 24 April 2017 00:00
Search period end: 04 May 2017 00:00
Orbit: 400 x 409 km, 51.6° (Epoch: 25 April)

Date Brightness Start Highest point End Pass type
(mag) Time Alt. Az. Time Alt. Az. Time Alt. Az.
24 Apr - 09:30:35 10° SSE 09:32:03 12° SE 09:33:30 10° ESE daylight
24 Apr - 11:04:46 10° SW 11:08:00 62° SSE 11:11:13 10° ENE daylight
24 Apr - 12:41:22 10° W 12:44:34 50° N 12:47:45 10° ENE daylight
24 Apr - 14:18:06 10° WNW 14:21:20 58° NNE 14:24:33 10° E daylight
24 Apr - 15:54:40 10° WNW 15:57:46 41° SSW 16:00:51 10° SE daylight
25 Apr - 10:12:44 10° SW 10:15:48 39° SSE 10:18:52 10° ENE daylight
25 Apr - 11:48:59 10° W 11:52:12 60° NNW 11:55:26 10° ENE daylight
25 Apr - 13:25:47 10° WNW 13:28:58 49° N 13:32:09 10° E daylight
25 Apr - 15:02:19 10° WNW 15:05:33 65° SSW 15:08:46 10° SE daylight
25 Apr - 16:39:53 10° WSW 16:41:31 13° SW 16:43:09 10° SSW daylight
26 Apr - 09:20:57 10° SSW 09:23:39 24° SE 09:26:21 10° E daylight
26 Apr - 10:56:37 10° WSW 10:59:52 79° NNW 11:03:08 10° ENE daylight
26 Apr - 12:33:25 10° WNW 12:36:34 47° N 12:39:44 10° ENE daylight
26 Apr - 14:10:01 10° WNW 14:13:16 85° NNE 14:16:32 10° ESE daylight
26 Apr - 15:46:52 10° W 15:49:27 22° SW 15:52:01 10° SSE daylight
27 Apr - 08:29:36 10° S 08:31:33 15° SE 08:33:30 10° E daylight
27 Apr - 10:04:19 10° WSW 10:07:34 72° SSE 10:10:50 10° ENE daylight
27 Apr - 11:41:00 10° W 11:44:10 48° N 11:47:22 10° ENE daylight
27 Apr - 13:17:41 10° WNW 13:20:56 63° NNE 13:24:10 10° E daylight
27 Apr - 14:54:18 10° W 14:57:18 35° SW 15:00:18 10° SSE daylight
28 Apr - 09:12:11 10° SW 09:15:18 46° SSE 09:18:27 10° ENE daylight
28 Apr - 10:48:34 10° W 10:51:46 56° NNW 10:55:00 10° ENE daylight
28 Apr - 12:25:21 10° WNW 12:28:33 52° N 12:31:44 10° E daylight
28 Apr - 14:01:53 10° WNW 14:05:04 56° SSW 14:08:16 10° SE daylight
28 Apr - 15:40:02 10° WSW 15:40:58 11° SW 15:41:53 10° SSW daylight
29 Apr - 08:20:14 10° SSW 08:23:06 28° SE 08:25:58 10° E daylight
29 Apr - 09:56:08 10° WSW 09:59:24 71° NNW 10:02:39 10° ENE daylight
29 Apr - 11:32:57 10° WNW 11:36:07 47° N 11:39:17 10° E daylight
29 Apr - 13:09:31 10° WNW 13:12:47 85° SSW 13:16:02 10° ESE daylight
29 Apr - 14:46:34 10° W 14:48:53 18° SW 14:51:12 10° S daylight
30 Apr - 07:28:40 10° S 07:30:57 18° SE 07:33:14 10° E daylight
30 Apr - 09:03:46 10° WSW 09:07:02 83° SSE 09:10:18 10° ENE daylight
30 Apr - 10:40:30 10° W 10:43:41 47° N 10:46:52 10° ENE daylight
30 Apr - 12:17:10 10° WNW 12:20:25 70° NNE 12:23:39 10° ESE daylight
30 Apr - 13:53:50 10° W 13:56:43 29° SW 13:59:35 10° SSE daylight
01 May - 06:38:06 10° SSE 06:38:50 11° SE 06:39:35 10° ESE daylight
01 May - 08:11:32 10° SW 08:14:44 54° SSE 08:17:55 10° ENE daylight
01 May - 09:48:02 10° W 09:51:15 52° N 09:54:26 10° ENE daylight
01 May - 11:24:47 10° WNW 11:28:00 55° N 11:31:13 10° E daylight
01 May - 13:01:20 10° WNW 13:04:29 47° SSW 13:07:37 10° SE daylight
02 May - 07:19:28 10° SSW 07:22:27 34° SE 07:25:26 10° E daylight
02 May - 08:55:33 10° W 08:58:48 65° NNW 09:02:03 10° ENE daylight
02 May - 10:32:22 10° WNW 10:35:33 48° N 10:38:43 10° E daylight
02 May - 12:08:54 10° WNW 12:12:10 74° SSW 12:15:24 10° ESE daylight
02 May - 13:46:11 10° W 13:48:11 15° SW 13:50:12 10° S daylight
03 May - 06:27:41 10° SSW 06:30:14 21° SE 06:32:46 10° E daylight
03 May - 08:03:08 10° WSW 08:06:24 87° NNW 08:09:40 10° ENE daylight
03 May - 09:39:54 10° WNW 09:43:04 47° N 09:46:15 10° ENE daylight
03 May - 11:16:31 10° WNW 11:19:46 77° NNE 11:23:02 10° ESE daylight
03 May - 12:53:16 10° W 12:56:01 25° SW 12:58:45 10° SSE daylight
